Location: Pl�tzky
(52.0521°N, 11.8020°E)
Time: 03:01:17
(UTC+00:00)

USA 229 - Pass Details

Date: 23 February 2020
Orbit: 986 x 1226 km, 63.4° (Epoch: 26 March)

Event Time Altitude Azimuth Distance (km) Brightness Sun altitude
Rises 20:17:51 0° 270° (W) 3,776 7.4 -33.1°
Reaches altitude 10° 20:20:39 10° 279° (W) 2,856 6.7 -33.5°
Maximum altitude 20:26:50 36° 345° (NNW) 1,643 4.9 -34.3°
Enters shadow 20:29:11 29° 22° (NNE) 1,892 5.0 -34.6°
